ECMWFNIL_500_spd_060.txt.gz
Wind_Speed
17 16 16 15 15 16 15 15 16 16 15 15 14 13 12 11 10 9 8 8 8 8 9 9 9 9 11 11 11 11 11 11 10 9 8 6 5 4 3 3 3 2
18 17 17 15 15 16 16 16 17 16 15 15 13 12 11 10 10 9 8 8 8 9 10 11 11 11 13 14 14 14 14 14 14 13 12 11 10 8 6 5 3 2
20 19 18 17 16 17 17 18 18 17 16 14 13 12 11 10 9 9 8 8 8 8 9 10 11 11 11 11 12 12 12 12 12 12 12 12 11 11 10 9 7 5
22 21 20 19 19 19 19 19 19 18 16 15 13 13 12 10 9 9 8 8 8 8 8 8 9 8 8 7 8 8 8 7 7 8 8 8 9 9 10 10 10 8
24 24 23 22 21 20 20 20 20 19 18 16 15 14 13 12 11 10 10 9 9 9 8 8 7 7 6 5 4 3 3 3 3 4 5 5 5 6 6 7 9 9
26 25 25 24 23 22 21 21 21 20 19 18 16 15 14 13 12 12 11 11 10 10 9 9 8 7 6 5 4 3 2 2 3 3 4 4 4 4 4 5 6 8
27 27 26 25 24 23 23 23 23 21 20 19 17 16 15 14 13 13 12 11 11 10 10 10 9 9 8 8 7 6 6 6 6 6 5 5 5 5 4 4 5 6
28 28 27 26 25 25 25 25 24 22 21 20 18 17 16 15 15 14 13 12 11 11 11 11 11 10 10 10 9 9 9 9 8 8 8 7 7 7 5 5 5 5
28 27 27 26 25 25 26 26 25 24 23 21 20 18 17 17 16 15 14 13 13 12 12 12 12 12 12 12 11 10 10 10 10 10 9 9 9 8 6 5 5 5
27 27 27 26 26 26 26 26 26 26 24 23 22 21 20 19 18 17 16 15 15 14 14 14 14 13 13 13 11 10 10 10 10 10 10 10 10 10 8 6 5 5
27 27 26 26 26 26 27 27 27 27 26 24 24 23 22 21 20 19 18 17 17 17 16 15 15 14 14 13 12 11 10 10 10 10 10 11 11 10 9 7 7 7
26 26 26 26 26 26 27 28 28 28 26 26 25 25 24 23 22 21 20 19 19 18 17 16 15 15 15 14 13 11 11 11 11 12 12 12 11 10 9 9 8 8
25 25 26 26 27 27 28 29 29 28 27 27 27 26 26 25 24 23 22 21 20 19 18 16 15 15 15 15 14 13 13 14 14 14 14 13 13 11 10 10 9 9
26 27 27 27 28 29 29 29 28 28 27 27 27 27 26 26 25 24 23 21 20 19 18 17 16 16 17 17 16 15 16 16 16 16 15 14 14 13 11 11 10 9
27 28 28 29 29 29 29 28 28 27 27 27 27 26 26 26 25 24 22 21 20 20 19 18 17 17 19 19 18 17 17 17 17 17 16 15 15 13 12 12 12 11
28 29 29 29 29 29 28 28 27 27 26 26 26 25 25 24 22 21 21 21 21 20 20 20 19 19 20 20 18 17 17 17 17 17 17 16 16 14 13 13 13 12
29 29 29 29 29 28 28 28 27 26 25 24 24 24 23 22 21 20 20 21 21 20 20 20 19 20 20 19 17 17 17 18 18 18 17 17 16 15 14 14 13 13
29 29 29 29 29 28 28 27 26 25 24 24 24 23 23 22 21 21 21 21 20 20 20 20 19 20 20 19 17 16 17 18 19 18 18 17 17 16 15 14 13 13
29 29 28 28 28 28 28 27 26 25 24 24 24 24 23 22 22 21 21 20 20 21 21 20 20 20 20 19 17 18 19 19 18 18 17 17 16 16 15 14 13 13
28 28 27 27 27 27 27 26 25 25 24 24 25 25 24 23 23 23 22 21 21 22 22 21 21 21 21 19 19 19 20 19 17 17 16 16 15 15 15 14 14 13
28 27 27 27 27 27 26 25 24 24 24 24 25 24 24 24 24 24 22 22 22 22 22 22 22 23 22 21 21 21 20 18 17 16 16 15 16 15 15 15 15 14
28 27 26 26 25 24 24 22 22 21 21 22 23 23 23 24 24 24 24 24 24 23 23 23 24 24 23 22 22 22 20 17 16 16 17 16 17 16 16 16 15 15
27 27 25 24 23 22 21 20 20 20 19 20 20 20 21 23 24 25 26 26 26 25 25 26 26 25 24 23 23 21 19 17 17 17 17 17 18 18 17 16 16 16
27 27 25 24 22 21 21 21 20 20 19 20 19 20 21 22 24 25 26 27 27 27 27 28 28 27 25 23 22 21 19 18 19 18 18 19 19 19 18 18 18 17
28 27 26 24 23 22 21 21 21 21 21 20 20 20 21 22 24 25 26 26 27 28 28 29 29 28 25 23 23 21 20 20 20 20 20 21 21 21 21 20 20 19
28 27 26 25 24 24 23 23 23 22 22 21 21 20 20 21 23 24 26 27 27 28 28 28 29 28 26 24 24 23 22 22 22 21 22 23 24 24 23 22 22 22

ECMWFNIL_500_spd_063.txt.gz
Wind_Speed
20 20 20 19 20 20 19 18 17 17 16 15 14 13 12 11 10 10 9 8 8 8 9 9 9 9 9 9 9 9 9 8 8 7 6 5 4 4 3 3 3 3
22 21 20 19 19 20 19 18 18 18 16 15 14 13 12 12 11 10 9 9 10 11 12 12 13 13 13 13 13 13 13 12 11 10 9 7 6 5 4 3 2 2
25 23 21 20 20 20 20 20 19 18 17 16 14 14 13 13 12 11 10 11 12 13 14 15 16 16 15 15 15 14 14 13 12 11 10 10 8 7 6 4 2 1
27 26 23 22 21 22 22 21 20 19 18 17 16 16 15 13 13 12 12 12 13 14 15 16 16 15 15 14 13 12 12 11 10 9 8 8 8 7 7 6 6 4
29 28 26 24 23 23 22 22 21 21 19 19 18 17 15 14 14 13 13 13 13 13 13 14 14 13 12 11 10 9 8 7 6 6 5 5 4 4 4 5 6 6
31 30 28 26 24 24 23 23 23 22 21 20 19 17 16 15 14 14 13 13 13 13 12 12 11 10 9 8 6 5 4 3 3 2 2 2 1 1 1 2 3 4
32 31 29 27 26 25 24 25 25 24 23 22 20 18 17 15 15 15 14 14 14 13 12 11 10 9 8 7 6 5 4 4 3 3 2 2 1 2 2 2 2 2
32 32 30 28 27 26 26 26 26 25 24 23 21 20 18 17 16 16 15 15 14 14 13 12 11 11 10 9 8 7 7 6 6 6 5 4 4 4 3 3 3 3
33 33 31 29 28 27 28 28 27 27 26 24 23 22 20 19 18 18 17 16 15 15 14 13 13 12 12 11 11 10 9 9 9 9 8 7 7 6 5 5 5 5
33 33 31 30 28 28 29 29 29 28 27 26 25 23 22 21 20 19 19 18 17 16 16 15 14 14 13 13 12 11 10 11 11 11 11 10 9 8 7 6 7 8
32 32 31 29 29 29 30 30 30 29 28 27 26 24 23 22 21 21 20 20 19 19 18 17 15 14 13 13 12 11 11 11 12 12 13 12 11 11 10 9 9 10
32 32 31 31 30 30 30 31 31 30 30 29 27 26 25 24 23 23 22 22 21 20 19 17 16 14 14 14 12 11 11 12 13 13 14 14 13 12 12 11 11 11
31 31 32 32 32 31 31 31 31 31 31 30 29 27 26 24 24 24 24 24 23 21 19 18 16 15 15 14 13 12 13 13 14 15 15 15 15 14 13 13 13 13
30 31 33 33 33 33 32 31 32 32 32 31 30 28 27 26 26 26 26 25 24 22 19 18 16 15 15 15 15 14 14 14 15 16 16 16 15 14 14 14 14 14
30 31 32 33 33 33 32 31 32 33 32 32 31 30 28 28 27 27 26 25 24 22 19 18 17 16 16 17 17 16 16 16 16 16 16 15 15 14 14 15 15 16
31 31 32 32 33 32 32 32 32 33 33 32 32 30 29 29 28 27 27 25 24 22 20 19 17 17 17 18 19 18 17 17 16 16 16 16 16 15 15 16 17 17
33 32 32 32 32 32 32 32 32 33 33 32 31 30 30 29 28 27 27 26 25 22 20 18 17 18 19 20 20 20 19 18 17 17 17 16 17 16 16 17 17 17
33 32 32 32 32 32 32 33 33 32 32 31 30 30 29 29 28 27 27 26 24 21 19 18 18 19 20 20 21 21 20 19 18 18 17 17 17 17 17 17 17 17
33 33 33 33 33 33 33 34 33 31 31 30 29 29 29 28 27 26 25 24 22 21 19 19 19 20 21 21 21 21 20 19 19 19 18 17 17 17 17 17 17 17
33 33 32 33 33 34 34 33 31 30 29 28 28 27 26 25 25 24 23 22 22 21 21 21 21 21 21 21 21 21 21 20 20 19 18 17 17 17 17 17 17 18
32 32 32 32 32 32 32 30 29 28 27 26 26 25 25 24 24 24 23 23 22 22 22 22 22 23 22 21 22 22 22 21 20 18 17 17 17 17 17 18 18 18
32 32 32 32 31 30 29 28 27 27 26 26 25 25 25 25 25 24 24 24 24 23 22 22 24 24 23 23 23 23 23 22 19 18 17 17 18 18 18 18 18 18
32 32 32 31 31 29 28 28 28 27 27 26 26 25 26 25 25 26 26 26 25 24 23 24 26 26 25 25 25 25 24 23 20 18 18 18 19 19 19 18 18 18
31 31 31 31 30 29 29 29 29 28 28 27 26 26 26 26 27 27 27 27 26 25 25 26 27 28 27 27 27 26 25 23 21 19 18 19 20 20 19 19 19 20
32 31 31 30 30 30 30 30 29 29 28 27 26 26 26 26 26 26 26 26 26 26 27 28 29 29 29 29 28 27 25 23 20 19 19 20 21 21 21 20 21 21
32 32 32 31 31 31 31 30 29 29 27 26 26 25 25 24 24 24 24 25 25 26 27 27 28 29 30 30 30 27 24 22 20 19 21 22 23 23 22 21 22 23

ECMWFNIL_500_spd_069.txt.gz
Wind_Speed
22 20 19 19 20 19 18 17 17 17 16 16 15 15 13 12 12 12 11 11 11 12 12 12 12 12 11 10 9 8 7 6 5 5 5 4 5 5 4 4 4 4
23 21 20 20 20 20 19 19 18 18 17 16 16 14 13 13 13 12 12 12 12 12 12 12 12 11 11 10 9 8 7 6 5 4 4 3 3 3 3 3 3 3
24 23 22 22 22 22 21 21 20 19 18 17 16 14 14 14 14 13 12 12 12 12 12 11 11 11 10 8 8 7 5 4 3 2 2 1 2 2 3 2 1 1
25 24 24 24 24 24 23 22 22 21 20 18 16 15 15 15 15 14 14 13 13 12 11 11 10 9 8 7 7 6 5 5 5 5 5 5 5 5 6 6 5 4
26 26 27 27 25 25 24 23 23 22 21 19 18 17 16 16 16 15 14 14 13 12 11 10 9 9 8 8 7 7 7 6 6 5 5 5 5 6 6 7 7 7
29 28 29 28 27 25 24 24 24 24 23 21 19 17 17 18 17 16 14 13 13 12 11 10 10 10 9 8 8 7 6 5 4 3 3 3 4 4 5 6 6 7
31 30 30 30 28 26 24 24 25 24 23 22 20 18 19 19 17 16 15 14 13 13 12 12 12 11 10 9 8 6 5 4 3 2 1 1 2 3 3 4 5 6
33 32 32 31 29 27 26 26 26 25 24 22 20 19 20 20 19 17 16 15 15 15 15 14 13 12 11 9 8 6 5 4 3 2 1 1 1 2 3 4 5 5
35 34 33 32 30 29 28 28 27 26 25 23 22 22 22 21 20 18 17 17 17 17 17 16 15 13 12 11 9 7 6 5 4 4 4 3 3 2 3 4 5 5
36 35 34 32 31 30 29 29 29 28 27 26 25 24 24 23 21 20 19 19 19 19 19 18 17 15 13 12 10 9 8 7 7 7 6 6 6 5 4 4 5 6
35 35 35 33 32 31 30 30 30 29 29 28 27 26 26 25 23 21 20 20 21 21 21 20 19 17 15 13 12 11 10 10 10 9 9 8 8 7 6 6 6 6
35 35 35 34 34 33 32 31 31 30 30 30 29 28 28 27 25 24 23 22 22 23 23 22 21 19 17 16 14 13 12 12 12 12 11 10 9 9 8 8 7 6
33 34 34 35 35 34 34 32 31 31 31 30 30 29 29 29 27 26 25 25 24 24 23 23 22 21 19 17 15 14 14 13 13 13 12 11 10 9 8 8 8 7
32 32 34 35 35 35 35 34 32 31 31 31 30 30 30 30 29 28 27 27 26 25 24 24 23 22 20 18 17 16 15 14 13 14 13 12 11 9 8 8 8 9
31 32 33 34 36 36 36 35 33 32 32 32 31 31 30 31 31 30 28 27 27 26 25 25 24 23 22 20 19 18 16 15 14 14 14 13 12 10 9 9 9 10
32 32 32 33 35 36 36 35 35 34 33 32 32 32 31 31 31 31 30 29 27 26 25 25 25 24 23 22 21 19 17 16 14 14 14 13 12 12 11 11 11 11
31 32 32 32 34 35 36 36 36 35 34 33 33 33 32 32 32 32 31 30 29 27 26 25 25 25 24 23 22 20 18 17 16 15 14 13 13 13 13 13 12 12
30 31 32 32 33 34 35 36 36 36 35 34 33 33 33 32 32 33 33 32 31 28 26 25 25 25 25 25 23 21 19 18 17 16 15 14 14 14 14 14 13 13
29 31 31 32 33 33 34 35 36 36 35 35 34 34 33 33 32 33 34 33 32 30 28 26 26 26 26 26 25 23 21 20 18 17 15 15 15 15 15 15 14 14
28 30 31 31 32 32 33 34 35 35 35 35 35 35 34 33 33 33 34 34 33 32 31 28 27 26 27 27 26 24 23 21 19 18 16 15 15 15 16 15 15 15
26 29 30 31 30 31 31 32 33 34 34 35 35 35 34 34 33 33 33 33 34 33 32 30 28 26 27 28 27 26 24 22 20 18 17 16 17 17 17 16 16 15
25 27 29 30 30 30 30 31 31 32 33 35 35 35 35 34 34 34 33 33 33 33 32 30 28 27 27 27 28 26 24 22 20 18 17 18 18 18 18 17 16 16
26 27 28 28 28 29 30 30 30 31 32 33 34 34 35 34 34 34 33 32 32 32 30 29 28 28 26 27 27 26 24 22 20 19 19 19 20 19 19 18 17 17
26 27 28 27 26 27 30 30 30 30 31 32 33 33 33 33 33 33 32 31 31 30 29 28 28 27 26 26 26 25 23 22 20 20 21 21 21 21 20 20 18 18
27 28 28 26 24 25 29 30 30 30 31 32 32 32 32 31 31 31 31 30 29 29 28 27 28 27 25 24 24 23 22 22 21 22 22 22 22 22 21 20 19 19
28 29 28 25 23 25 28 30 30 30 31 31 31 31 30 30 29 30 29 29 29 28 27 26 26 25 23 23 23 23 23 23 23 23 24 24 24 23 22 21 20 20

ECMWFNIL_500_spd_072.txt.gz
Wind_Speed
16 15 14 15 16 16 15 14 13 13 12 11 10 10 9 9 8 8 8 8 8 7 7 7 7 7 8 8 8 7 6 5 5 5 5 5 5 4 3 3 3 3
18 16 16 16 17 17 16 16 15 14 13 12 11 10 10 10 9 9 10 9 9 9 8 8 8 8 8 8 8 6 5 4 3 3 3 4 4 4 4 3 2 2
19 18 17 17 18 18 18 17 17 16 15 14 13 12 11 11 11 11 11 10 10 9 9 8 8 7 7 7 6 5 2 1 1 3 4 6 7 7 7 6 4 2
21 20 19 19 19 19 19 18 18 18 17 16 15 14 13 13 12 12 12 11 10 10 9 8 7 7 6 5 4 1 2 4 5 6 7 7 8 9 9 9 8 6
23 22 21 21 21 20 19 19 19 19 18 18 17 16 15 14 14 14 13 12 11 9 8 7 6 5 4 3 3 4 6 6 7 7 7 7 8 9 9 10 9 9
25 23 22 23 22 21 20 19 20 20 20 19 18 17 16 15 16 15 14 13 11 9 7 6 6 5 5 6 6 7 7 7 6 6 6 7 8 8 9 9 9 9
27 25 23 24 24 23 21 20 20 20 20 20 18 17 16 16 17 16 14 13 11 9 8 7 7 8 7 8 8 7 7 6 5 5 5 6 6 7 7 8 8 8
29 27 25 25 25 24 23 22 21 20 20 19 18 17 16 17 18 16 15 14 12 10 9 9 9 9 9 9 8 7 6 5 4 3 4 4 5 6 6 6 7 7
31 29 27 26 26 25 24 23 22 22 21 20 19 18 18 18 18 17 16 14 13 12 11 11 11 11 10 9 8 6 5 4 2 1 2 3 4 5 5 6 5 5
30 30 29 28 27 26 25 25 24 23 22 21 21 20 20 20 19 17 16 15 14 13 13 13 13 13 11 10 8 7 5 4 2 1 1 2 3 4 5 5 5 5
28 29 29 29 28 27 27 26 25 24 23 22 22 21 21 21 20 19 17 16 15 15 14 14 14 14 12 11 9 8 7 5 4 3 3 3 3 3 3 4 5 5
25 27 28 28 29 29 28 28 26 25 24 24 23 23 22 22 21 20 19 18 17 17 16 16 16 15 14 12 11 9 8 7 7 6 5 5 4 4 3 3 4 4
22 23 25 27 29 30 30 30 28 26 26 25 24 24 23 23 22 22 21 21 20 19 18 17 17 16 16 14 12 11 10 9 9 8 7 6 6 5 4 3 3 4
22 22 23 24 27 29 31 31 30 28 27 26 25 24 23 23 23 23 23 22 21 20 19 18 18 18 17 16 14 14 13 11 10 10 9 8 8 7 6 4 4 4
22 23 22 22 24 26 28 30 30 30 28 27 26 25 25 24 24 24 24 24 23 22 20 19 18 18 18 18 17 16 15 13 11 11 10 9 9 8 7 6 5 5
20 22 22 22 22 23 24 27 30 31 30 28 27 26 26 25 25 25 25 24 24 23 22 20 19 19 19 19 19 18 17 15 13 12 11 10 10 9 8 7 7 6
18 20 21 22 22 22 22 23 26 29 30 29 28 28 28 27 26 25 25 25 26 25 24 22 20 20 20 20 21 20 18 17 15 14 12 11 11 10 9 8 8 8
17 17 19 20 21 22 22 22 23 26 28 29 28 28 29 28 27 26 25 26 26 26 26 24 22 22 21 21 21 21 20 18 17 16 14 13 12 11 10 10 9 10
16 16 17 18 20 21 21 21 21 22 24 27 28 29 30 29 28 27 26 26 26 27 26 26 24 23 22 22 22 22 21 19 18 17 16 15 13 12 11 11 11 11
18 17 17 17 18 19 20 20 19 20 21 24 26 28 29 29 29 28 27 27 27 27 27 27 26 25 24 23 23 22 22 21 19 19 18 16 15 14 13 13 12 12
19 18 17 18 18 18 18 18 19 19 20 22 24 25 26 28 29 29 28 28 28 28 28 27 27 26 26 25 25 24 23 22 21 20 19 18 17 16 15 14 14 13
20 19 18 19 19 18 17 17 18 19 20 21 22 23 25 27 29 29 28 28 29 28 28 28 27 27 26 27 27 26 24 23 22 21 20 19 18 18 17 16 15 14
22 20 19 19 19 18 16 16 17 18 19 20 21 22 23 25 27 28 28 28 29 29 28 28 28 28 27 27 28 28 25 23 22 22 21 20 19 19 19 17 16 15
23 22 20 20 19 19 18 17 17 18 19 20 21 21 23 24 26 27 28 28 28 29 28 28 29 28 27 27 28 28 26 23 22 22 22 21 21 21 20 19 18 17
24 23 21 20 19 19 20 19 18 19 20 21 21 22 23 24 25 26 26 26 27 27 28 28 29 28 27 27 28 27 25 23 22 22 22 22 23 22 21 20 19 19
25 24 23 21 20 20 21 21 19 20 21 22 22 22 23 24 25 25 24 24 25 26 27 27 28 27 27 27 27 26 25 23 22 21 22 23 24 23 22 21 21 20

ECMWFNIL_500_spd_075.txt.gz
Wind_Speed
13 12 11 11 12 12 12 12 12 11 10 9 9 8 8 7 7 6 5 4 3 3 3 4 5 6 6 6 6 5 5 5 5 5 4 4 3 3 2 2 3 4
15 13 13 12 12 13 13 13 13 12 11 10 10 9 9 8 8 7 6 5 4 4 4 5 5 6 6 5 5 4 5 6 6 6 6 6 6 5 5 4 4 4
16 15 14 13 13 14 14 15 14 14 13 12 11 11 10 10 9 8 7 6 5 5 5 5 5 5 5 4 3 3 5 7 8 9 8 8 9 8 8 8 6 5
18 16 15 15 15 14 15 15 15 15 14 13 13 12 12 11 10 9 8 7 6 5 5 5 5 4 2 2 4 5 7 9 10 10 10 9 10 10 11 11 10 8
21 18 17 16 16 15 15 14 14 15 15 15 14 14 13 12 11 11 10 8 7 6 5 5 4 2 0 3 6 7 8 10 11 11 10 10 10 10 11 12 11 10
23 20 18 17 17 16 15 15 15 15 15 15 15 14 14 13 13 12 11 10 8 7 6 5 4 2 3 5 7 8 9 10 11 11 10 9 9 10 10 11 11 11
24 22 20 18 17 17 16 16 15 15 14 15 14 14 13 13 13 13 12 11 9 8 7 6 5 4 5 7 8 9 9 10 10 10 10 9 9 9 9 9 10 10
26 24 22 19 18 18 17 17 16 15 15 14 14 14 13 13 14 14 12 11 10 9 7 7 6 6 7 7 8 8 9 9 10 10 9 8 8 8 8 8 8 8
27 25 23 21 19 18 18 18 17 17 15 15 15 15 14 14 15 15 13 11 10 9 8 8 7 8 8 8 7 8 8 8 9 8 8 8 7 7 7 6 6 7
27 26 24 22 20 19 18 18 18 18 17 16 15 15 15 16 16 16 14 12 11 11 10 9 9 9 9 8 7 7 7 7 8 7 7 7 6 6 6 6 5 4
27 25 24 22 21 21 20 20 19 19 18 17 16 16 16 16 16 16 15 14 13 12 11 10 10 10 10 9 8 7 6 6 7 7 6 6 5 5 4 4 4 3
25 24 22 22 22 22 22 21 21 20 20 19 17 16 16 16 17 17 17 15 14 14 13 12 11 12 11 10 10 9 7 6 5 6 6 5 4 3 3 2 2 3
23 22 21 20 21 22 23 23 22 22 21 20 19 17 17 17 17 17 18 17 15 14 14 13 12 13 12 11 10 10 8 6 4 4 4 4 4 3 1 1 2 2
22 21 20 19 19 20 21 22 22 23 23 22 20 18 17 17 18 18 18 18 16 15 15 14 13 13 13 12 11 11 9 7 4 2 2 2 2 2 1 1 3 4
21 21 19 18 17 17 17 19 20 22 23 23 22 20 18 18 19 19 19 18 18 16 15 15 13 13 13 13 13 12 10 8 6 4 3 2 2 1 2 3 4 5
18 18 18 17 17 16 16 16 18 20 22 23 23 22 21 19 19 20 19 19 19 18 16 15 14 14 14 14 14 13 12 10 8 7 7 6 5 5 4 4 5 6
16 15 15 16 17 17 16 16 16 18 19 21 23 24 23 21 21 20 20 20 19 19 17 16 16 16 16 15 15 14 14 13 12 10 9 9 9 8 7 7 7 8
16 14 14 14 15 16 17 16 16 16 17 18 21 23 24 23 22 21 21 21 20 19 18 17 17 18 18 17 16 16 15 15 14 13 11 11 11 11 10 9 9 9
17 15 13 13 14 15 16 17 16 16 16 17 18 21 23 23 23 22 21 22 21 20 19 19 19 19 20 19 18 17 16 16 15 15 14 13 13 13 13 12 12 11
19 16 14 13 13 14 15 16 16 17 17 17 17 19 21 22 22 22 22 22 22 21 20 20 20 20 20 20 20 19 18 17 16 16 16 15 15 15 16 15 14 13
19 17 16 14 13 12 13 14 16 17 17 17 17 17 19 21 22 23 22 22 22 22 22 21 20 20 21 21 21 21 20 19 17 17 16 16 17 17 18 18 17 15
18 18 16 15 14 13 12 13 15 16 17 18 18 18 19 20 22 22 22 23 23 23 23 22 21 21 21 22 22 22 22 21 19 18 17 17 18 19 20 20 19 17
18 18 17 16 15 14 12 12 14 16 17 18 18 19 19 20 21 22 23 24 24 24 24 23 23 23 22 23 23 24 23 22 21 20 19 19 20 21 22 22 21 20
18 19 18 17 16 15 14 14 15 16 17 18 18 19 19 20 21 22 22 23 24 24 24 24 25 24 24 24 24 24 23 22 22 22 21 20 21 22 23 23 23 22
19 20 21 20 19 18 16 16 16 17 17 18 19 19 20 20 21 21 22 22 22 23 24 24 25 25 25 25 25 25 24 23 22 22 22 22 23 23 24 25 25 24
19 21 22 22 21 21 20 19 18 18 18 18 19 20 20 21 21 21 21 21 21 22 22 23 24 24 25 25 26 26 25 24 23 22 22 23 24 24 25 26 26 24

ECMWFNIL_500_spd_078.txt.gz
Wind_Speed
14 13 13 13 14 13 13 14 13 12 11 10 9 9 8 8 7 7 6 5 4 3 3 5 5 5 5 5 6 5 5 5 4 4 4 3 4 4 5 5 5 6
15 15 14 14 14 14 14 14 14 14 13 12 11 10 9 8 8 7 6 5 4 2 3 4 5 5 5 5 6 6 6 6 6 6 6 5 5 5 6 5 5 6
16 15 15 15 14 15 15 15 15 14 14 13 11 11 10 10 9 8 7 5 4 2 2 4 5 5 5 6 7 7 7 7 8 9 9 8 8 7 7 6 6 6
17 16 16 16 16 15 15 15 15 15 14 13 13 12 11 10 10 9 7 6 4 2 2 3 4 5 6 6 7 8 8 8 9 10 11 11 10 9 8 8 7 6
19 17 17 16 16 15 15 15 15 15 14 14 13 13 12 11 11 10 8 6 4 2 1 2 4 5 6 7 8 9 9 9 9 10 11 11 11 10 10 9 8 7
20 18 17 16 16 15 15 15 15 15 14 14 13 13 12 12 11 10 9 7 5 3 1 1 3 5 7 8 9 10 11 11 11 10 10 11 11 11 10 9 8 7
20 19 18 17 16 15 15 15 15 15 14 14 13 12 12 11 11 10 9 7 5 4 2 1 2 5 8 9 10 11 11 12 11 11 10 10 10 10 10 9 8 8
22 21 20 18 17 16 16 16 15 15 15 14 14 13 12 12 11 10 9 7 6 5 3 2 2 6 8 9 10 11 12 12 11 11 10 10 10 10 9 9 8 7
24 23 21 19 18 17 17 17 16 16 15 14 14 14 14 13 12 11 10 8 7 6 4 3 4 6 9 10 10 11 12 12 11 11 10 9 9 9 8 8 7 6
25 24 23 21 19 18 19 18 18 17 15 15 14 14 14 14 13 12 11 10 8 7 6 5 6 8 10 11 12 12 12 12 11 10 10 9 8 8 7 7 6 5
24 25 24 23 22 21 20 20 20 19 17 16 15 14 14 14 14 13 12 11 10 9 8 8 7 9 12 13 13 13 13 12 12 11 10 8 7 7 6 6 5 4
22 24 25 25 25 24 23 22 21 20 19 18 16 15 14 13 13 13 13 12 11 10 10 9 9 10 12 14 14 14 14 13 12 11 10 8 7 5 5 4 4 3
20 22 25 27 27 27 26 25 23 22 21 20 18 17 15 14 13 14 14 14 12 11 11 10 10 10 12 14 14 14 14 14 13 12 11 9 7 6 4 3 3 3
20 22 24 27 29 29 29 27 26 24 23 22 20 18 16 15 15 15 15 15 14 12 12 11 10 11 12 13 14 14 14 14 13 12 11 9 8 7 6 5 4 4
22 23 24 26 28 29 29 28 27 27 26 24 22 20 18 17 17 17 16 16 15 14 13 12 11 12 12 13 15 15 14 14 14 13 11 10 9 8 7 7 6 6
24 24 24 25 26 26 27 27 28 28 28 27 25 23 21 20 19 18 17 16 16 15 14 13 13 13 14 14 15 16 15 15 14 14 12 11 10 9 8 8 8 8
25 25 24 24 24 25 26 27 28 28 29 28 28 26 24 22 21 19 18 17 17 17 16 15 15 15 16 16 15 16 16 16 16 15 14 12 11 10 10 9 9 10
24 25 25 25 25 26 26 27 27 28 28 29 28 28 27 25 23 21 20 19 19 18 17 16 16 17 18 17 17 16 16 16 17 16 15 14 13 13 12 12 11 12
21 23 24 26 27 27 28 28 27 27 27 27 28 28 28 27 25 24 23 22 20 19 18 18 18 19 19 19 19 18 17 17 17 17 17 16 16 15 15 15 14 14
19 20 22 24 26 27 28 28 27 27 27 27 28 28 28 27 26 26 25 24 23 22 21 20 20 20 20 20 20 20 19 19 18 18 18 18 18 17 17 17 17 16
20 20 21 22 23 25 26 28 28 28 28 28 28 27 27 27 27 27 27 26 25 25 24 22 22 21 21 21 21 21 21 21 20 19 19 19 19 19 19 20 20 19
24 24 23 22 22 23 24 26 27 28 28 28 28 27 27 27 27 27 27 27 27 27 25 24 24 23 23 22 22 22 22 22 22 22 21 21 21 21 22 22 22 21
31 29 27 24 23 23 23 24 26 27 28 28 28 27 27 26 26 26 27 27 27 27 26 26 26 26 25 24 24 24 23 23 23 23 23 23 23 23 24 23 23 23
36 34 31 29 27 25 24 25 25 26 27 28 28 27 27 26 27 27 27 27 27 27 27 27 27 27 27 27 26 26 25 24 23 24 24 24 24 25 25 25 24 24
38 35 33 31 30 28 27 26 26 26 27 28 28 28 27 27 27 26 26 26 26 26 27 27 28 28 29 28 28 28 27 25 24 24 24 24 25 26 27 27 26 26
38 35 32 30 30 31 30 29 27 27 27 28 28 28 27 26 26 25 25 25 26 26 26 26 27 28 28 29 30 29 29 27 26 24 23 24 26 28 29 29 28 28

ECMWFNIL_500_spd_084.txt.gz
Wind_Speed
15 15 14 14 14 13 12 12 12 12 12 13 13 13 12 12 11 11 10 10 9 9 8 8 8 7 7 7 7 7 7 6 6 6 6 6 7 8 8 8 8 8
16 16 15 14 14 13 13 13 13 13 13 12 12 11 11 11 11 11 11 10 9 9 8 8 8 7 7 7 7 7 7 7 7 7 7 7 7 8 8 8 8 8
17 16 15 15 15 15 15 15 15 14 14 13 12 11 12 11 11 10 10 10 10 9 9 8 8 8 8 8 8 8 8 8 8 8 8 8 8 8 8 9 9 9
18 17 16 16 16 16 16 16 16 15 15 14 14 14 13 12 10 10 9 9 10 10 9 9 9 9 9 9 9 9 9 9 9 9 8 9 9 9 9 9 9 9
21 19 18 17 16 16 16 16 16 15 15 15 16 15 14 13 12 11 10 10 10 10 10 10 10 10 11 10 10 10 10 10 9 9 8 8 9 10 10 10 9 9
23 21 19 18 17 16 16 16 17 16 16 16 16 16 15 14 13 12 12 11 10 10 10 10 11 11 12 12 11 11 11 11 11 10 9 9 8 9 10 11 11 10
25 23 21 20 18 17 17 17 16 16 16 16 16 16 15 15 14 13 13 12 12 11 11 11 11 12 12 12 12 13 13 12 12 12 11 10 9 9 9 10 11 10
27 26 24 22 20 18 18 17 17 17 17 16 16 16 15 15 15 14 13 13 13 13 12 12 12 13 13 13 13 14 14 13 13 12 12 11 11 10 9 10 10 10
29 28 26 23 21 21 20 19 19 18 18 17 17 17 16 15 15 14 14 14 14 13 13 13 13 14 14 13 14 15 15 14 14 13 12 12 11 11 10 10 9 9
30 29 27 25 24 23 23 22 21 20 19 19 19 18 17 16 15 14 14 14 14 14 14 14 14 15 15 15 15 16 16 16 15 14 13 12 12 11 11 10 9 9
30 30 28 27 26 25 25 25 24 23 22 21 21 20 19 18 16 15 15 15 15 15 15 15 15 16 17 16 16 16 17 17 16 15 14 13 12 12 11 11 10 9
32 31 29 28 28 28 28 28 26 25 24 23 23 22 21 20 18 17 16 17 17 16 16 16 16 17 18 18 17 17 17 17 16 15 14 13 12 12 11 10 10 9
32 32 31 31 31 30 30 30 28 27 25 25 24 23 23 21 20 19 18 18 18 17 17 17 17 17 18 19 18 18 18 17 17 16 15 14 13 12 11 10 9 8
33 33 33 33 33 32 32 31 30 28 27 26 26 24 23 22 21 21 20 20 20 19 18 17 17 17 18 20 20 19 19 19 18 17 17 16 14 13 12 11 9 8
34 35 35 35 35 34 33 32 31 30 29 28 26 25 24 23 23 22 21 21 20 20 19 18 17 18 19 20 21 21 21 21 20 19 18 17 16 14 13 12 11 10
36 36 36 37 36 35 34 33 33 32 31 29 28 27 26 25 24 23 22 21 21 20 19 18 18 19 20 21 23 23 23 23 22 21 20 19 17 16 15 13 12 11
37 37 38 38 37 36 35 34 34 34 33 31 30 29 28 27 26 24 23 23 23 22 20 19 19 20 21 22 23 24 25 25 24 23 22 21 19 18 16 15 14 13
38 38 38 38 38 37 37 36 36 36 34 33 32 31 30 29 27 26 25 25 24 23 22 20 20 21 22 22 23 24 26 26 26 25 24 23 21 20 18 17 16 14
38 39 39 38 38 38 38 38 38 37 35 34 34 33 32 31 29 28 27 27 26 25 23 22 23 23 24 23 24 25 26 27 28 27 26 25 24 22 21 19 17 16
36 38 38 38 38 39 39 39 38 37 36 36 36 35 34 33 32 31 30 28 27 27 26 25 24 25 25 25 25 25 26 27 29 29 29 28 26 25 23 22 20 19
36 36 37 38 38 39 39 39 38 37 37 37 37 36 36 36 35 34 32 31 30 29 28 27 26 26 27 26 26 27 27 27 28 29 30 30 29 28 27 25 24 23
37 37 37 38 39 39 38 38 38 37 37 37 38 38 38 38 37 36 35 35 33 32 30 29 29 29 28 28 28 28 28 28 28 29 30 31 32 31 30 29 28 27
39 37 37 38 38 38 38 37 37 37 38 39 39 39 39 38 38 38 38 37 36 35 33 31 32 32 31 30 30 29 29 28 28 29 29 30 32 33 33 32 31 30
39 36 36 36 37 38 37 37 37 37 39 39 39 38 38 38 38 38 38 38 37 36 35 34 34 34 34 32 31 31 30 29 29 29 29 30 31 33 34 34 34 33
37 34 32 33 35 36 37 38 38 38 38 38 38 37 37 37 37 37 36 36 36 36 35 35 36 36 36 35 34 33 31 30 30 29 29 29 31 32 33 34 35 36
38 34 32 32 33 34 36 37 37 37 37 37 36 35 35 35 35 35 34 34 35 35 35 35 36 37 38 37 37 36 34 33 32 30 29 30 31 32 33 34 35 36

ECMWFNIL_500_spd_087.txt.gz
Wind_Speed
16 15 15 14 14 13 13 14 14 13 13 13 13 13 13 13 12 12 11 11 11 10 10 10 9 9 9 9 9 9 9 9 10 10 9 9 9 9 9 9 9 9
18 17 15 14 14 13 13 14 14 14 13 13 12 12 12 13 13 12 12 12 11 11 10 10 9 9 9 9 9 9 9 10 10 10 10 10 10 10 9 9 9 10
19 17 16 16 15 15 15 15 14 14 14 12 12 12 13 14 13 13 13 13 12 11 11 10 9 9 9 9 9 9 9 9 9 9 9 10 10 10 10 9 9 10
20 19 18 17 17 16 16 16 15 15 15 14 14 14 15 15 14 14 13 13 12 12 11 11 10 10 9 9 9 9 9 9 8 8 8 9 9 10 10 10 10 10
21 21 20 18 17 17 16 17 17 17 16 16 16 16 16 15 14 14 14 13 13 12 11 11 10 10 10 9 9 9 9 9 8 8 7 7 8 9 9 9 10 10
23 22 21 20 19 18 18 18 18 18 18 17 17 16 16 15 14 14 14 14 13 13 12 11 11 10 10 10 9 9 9 9 9 9 8 7 7 7 8 9 10 10
25 24 23 22 20 19 19 19 19 19 19 18 17 17 16 15 15 15 15 14 14 13 13 12 11 11 11 10 10 9 9 10 10 10 9 8 7 7 7 8 9 10
27 27 25 23 22 21 20 20 20 20 20 19 18 18 17 16 16 15 15 15 15 14 14 13 12 12 12 11 11 10 10 11 11 11 11 10 9 8 8 8 8 9
30 29 27 25 23 22 22 22 22 21 21 20 20 19 18 18 17 16 16 16 16 15 15 14 13 12 12 12 12 11 11 11 12 12 12 11 10 9 9 8 8 8
32 31 29 28 26 25 25 24 24 23 22 21 21 21 20 19 18 17 17 17 17 17 16 16 15 14 13 13 13 12 12 12 12 13 13 12 11 11 10 9 9 8
34 33 31 30 29 27 27 27 26 25 24 24 23 22 22 21 20 19 18 18 18 18 18 17 16 15 14 14 14 13 13 12 13 13 13 13 13 12 11 11 10 10
35 34 33 32 32 30 30 30 28 27 26 26 25 25 24 23 21 20 19 20 20 20 20 19 18 16 16 15 15 15 14 14 14 14 14 14 14 13 12 12 11 11
37 35 35 35 34 33 33 32 31 30 28 28 27 27 26 24 23 22 21 22 22 22 21 20 19 18 17 17 16 16 16 16 16 16 15 15 15 14 13 12 12 11
38 37 37 37 37 36 35 34 33 32 30 30 29 27 27 26 25 24 24 23 23 23 22 21 20 19 18 18 18 18 18 17 18 17 17 16 15 15 14 13 12 12
39 39 39 39 40 39 37 36 35 34 33 31 30 28 28 27 27 26 25 24 24 23 23 22 21 20 19 19 20 20 20 20 19 19 18 17 17 15 15 14 13 13
40 41 41 42 42 41 40 38 37 36 35 33 31 30 29 28 28 27 25 25 24 24 24 23 22 21 21 21 21 21 22 22 21 21 20 19 18 17 16 15 15 14
40 41 42 43 43 43 42 41 39 38 37 35 33 32 31 30 29 27 26 26 26 26 25 24 23 22 23 23 23 23 23 23 23 23 22 21 20 19 18 17 16 15
39 41 42 43 44 44 44 43 42 41 39 38 36 34 33 32 31 29 28 27 27 26 25 24 24 24 25 25 24 24 24 24 25 24 24 23 22 21 20 19 18 17
38 40 42 43 44 44 45 44 44 43 42 40 39 38 37 35 33 31 30 29 27 26 25 25 25 26 27 26 26 25 25 25 26 26 26 25 24 23 23 22 21 19
39 39 41 43 44 44 45 46 45 44 43 42 41 41 39 37 35 34 32 31 29 28 27 26 25 27 28 28 27 27 27 26 27 27 27 27 26 26 25 24 23 22
39 38 38 39 41 43 44 45 45 45 44 44 43 42 41 39 38 36 35 33 32 30 29 27 27 27 28 28 29 29 28 27 27 27 28 28 28 28 28 27 26 25
42 40 38 37 39 41 43 43 44 44 44 44 44 44 43 42 40 38 36 35 34 33 31 29 29 30 30 29 30 30 29 28 26 27 28 28 29 30 30 30 29 28
44 41 38 37 38 39 39 40 41 41 41 42 43 44 44 43 42 41 39 38 36 34 32 31 31 32 31 31 31 31 29 28 26 27 27 28 30 31 32 32 32 31
43 40 38 38 38 37 37 39 40 39 38 39 42 44 44 44 43 43 42 40 38 35 33 32 33 33 32 31 31 31 30 28 27 27 27 28 30 31 32 33 34 34
46 43 41 40 39 38 39 40 41 40 39 40 42 43 43 43 43 43 42 41 39 38 36 35 35 35 34 33 33 33 31 30 29 27 27 28 29 31 32 33 35 36
47 46 44 42 41 41 42 42 43 43 43 42 42 41 41 41 41 41 42 41 41 40 38 37 37 37 36 36 35 35 34 32 31 29 28 28 29 31 32 33 34 36

ECMWFNIL_500_spd_093.txt.gz
Wind_Speed
18 19 18 18 18 17 17 16 16 15 14 13 12 11 10 10 9 9 9 9 9 8 8 7 7 7 7 8 8 8 8 8 8 7 7 7 7 7 7 7 7 6
20 20 19 18 18 18 18 17 16 15 15 14 13 12 12 11 10 10 10 10 9 8 8 7 6 6 6 6 6 6 6 6 6 6 6 6 6 6 6 6 6 6
22 21 20 19 19 19 18 18 17 16 16 15 14 14 13 12 12 11 10 10 10 9 8 7 6 5 5 5 5 5 5 5 5 6 6 6 6 7 6 6 6 6
24 22 21 21 20 19 18 18 18 17 17 16 16 16 15 14 13 12 12 11 11 9 8 7 6 5 5 4 4 4 4 4 4 5 5 6 7 7 7 6 6 6
25 25 23 22 21 19 19 19 19 19 18 18 17 17 16 15 14 14 13 12 11 10 9 8 7 6 5 4 4 3 3 3 3 4 5 6 7 7 7 6 6 6
26 26 25 23 22 21 20 20 20 20 19 19 18 18 17 16 16 15 14 13 12 11 10 9 8 6 6 5 4 3 3 3 3 4 5 6 7 7 7 7 6 6
26 26 26 25 23 22 22 21 20 20 20 19 19 18 18 18 17 16 15 13 13 11 10 10 9 8 6 6 5 4 4 3 4 4 5 6 6 7 7 7 6 6
26 27 26 25 24 23 22 22 21 21 21 20 19 20 20 19 18 17 16 15 14 13 12 11 10 9 8 7 6 6 5 4 4 5 6 6 6 7 7 7 6 7
26 26 26 25 24 23 23 23 22 22 21 20 20 21 21 20 20 18 17 16 15 14 14 13 12 11 9 8 7 7 6 5 5 5 6 6 7 7 7 7 7 7
27 27 27 26 25 24 24 23 23 22 22 21 22 22 21 21 21 20 18 17 16 16 16 15 14 13 11 9 8 8 7 7 6 6 7 7 7 7 7 7 7 7
30 29 28 27 27 26 25 25 24 23 23 23 23 23 22 22 22 21 20 19 18 18 18 17 16 15 13 11 10 9 8 8 8 8 8 9 9 9 9 9 8 7
32 31 29 29 29 28 28 27 26 25 24 24 24 23 23 23 23 23 22 21 21 20 20 19 18 16 15 13 12 10 9 10 10 10 9 10 10 11 11 11 10 9
31 31 31 31 31 30 30 29 28 27 26 25 25 24 24 24 24 24 23 23 23 22 22 21 20 18 17 15 14 12 11 11 11 12 11 11 12 12 12 12 12 12
29 30 32 33 32 32 31 30 30 29 27 27 26 25 24 25 25 25 25 24 24 24 23 23 21 20 18 17 17 15 14 13 13 13 13 13 13 13 13 13 13 13
28 30 32 33 33 33 32 32 31 30 29 28 27 26 25 26 26 25 25 25 25 25 24 24 23 21 20 20 19 18 17 15 14 13 14 14 13 14 14 14 14 14
28 29 30 32 33 33 34 34 33 32 31 30 29 28 27 26 25 25 25 25 24 25 25 24 24 23 22 22 22 21 20 18 16 15 15 14 14 14 14 14 14 14
28 29 30 31 33 35 35 36 35 34 33 31 30 29 28 27 26 24 24 24 24 24 25 25 25 24 23 23 24 23 22 20 19 17 17 16 15 15 15 15 15 15
31 31 31 32 34 35 37 38 37 36 35 34 32 31 30 29 28 26 25 24 24 24 24 24 25 25 24 24 26 26 24 23 21 20 19 17 17 16 16 16 16 16
34 33 33 34 34 35 36 38 38 38 37 36 35 35 34 32 30 28 27 26 26 25 24 24 25 25 24 24 26 27 26 25 23 22 20 19 18 17 17 17 17 17
37 35 34 34 35 35 35 36 37 38 38 38 38 37 35 34 32 31 30 29 28 26 25 25 25 26 24 25 27 28 28 27 25 23 22 21 20 19 18 18 18 18
35 33 32 32 35 35 35 35 35 36 37 38 37 37 36 35 34 33 32 31 30 29 27 26 26 26 26 25 27 29 29 28 26 24 23 22 22 21 20 20 20 19
35 31 29 30 32 34 35 36 35 35 36 36 36 35 35 34 34 34 34 33 32 31 29 28 27 28 27 27 28 29 30 29 27 25 24 24 24 24 23 22 21 20
40 35 31 30 31 31 33 36 37 37 37 37 36 34 33 33 33 34 35 34 33 33 32 30 30 30 29 29 29 30 30 29 28 27 26 25 25 25 25 24 23 22
43 40 36 35 35 34 33 35 38 40 38 37 37 33 31 31 31 32 34 34 34 34 34 34 34 33 32 31 31 31 31 30 29 28 27 26 26 26 26 26 26 25
45 43 41 40 39 39 38 37 37 38 37 36 36 34 31 29 29 30 31 33 34 35 34 35 36 36 35 34 34 34 33 32 31 29 28 27 27 27 27 27 27 27
48 46 45 44 42 43 43 43 41 39 37 35 34 34 32 29 29 29 29 31 34 35 35 36 36 36 36 36 36 36 35 35 33 31 30 29 29 29 29 29 29 29

ECMWFNIL_500_spd_096.txt.gz
Wind_Speed
17 18 17 16 16 16 15 14 13 11 10 9 9 8 8 7 7 6 6 5 5 5 5 5 5 5 4 5 5 5 5 5 6 5 5 5 4 3 2 2 2 2
19 19 18 17 17 17 16 15 14 13 12 11 11 10 10 9 8 7 7 6 6 5 5 5 5 5 4 5 5 5 5 5 5 5 4 4 4 3 2 2 2 2
20 19 18 18 18 17 17 16 15 15 14 13 12 12 11 10 9 8 7 7 6 5 5 5 4 4 4 5 5 5 5 5 5 5 5 5 4 4 3 3 3 2
20 20 20 19 18 17 17 17 17 16 15 14 14 13 12 11 10 9 9 7 6 5 5 4 4 4 4 5 4 4 4 5 5 5 5 5 5 5 5 4 3 3
21 21 20 19 18 18 18 18 18 17 16 15 15 14 13 12 12 11 10 8 7 6 5 5 5 4 5 5 4 4 4 4 4 4 4 4 4 5 5 5 5 4
21 21 20 19 18 18 19 19 18 18 17 16 16 15 14 14 13 12 11 10 8 7 6 6 6 5 5 5 5 4 4 4 4 4 4 4 4 4 4 5 5 5
22 22 21 20 19 19 19 19 19 18 18 17 17 17 16 15 15 14 12 11 10 9 8 8 7 6 6 6 5 5 5 5 4 4 4 4 3 3 3 4 5 5
23 23 22 21 20 19 20 20 19 19 19 18 18 17 17 16 15 15 13 12 11 10 10 9 8 6 6 6 6 6 5 5 5 4 4 4 3 3 2 2 3 4
25 24 23 22 21 20 20 20 20 20 19 19 18 18 18 17 16 15 14 14 13 12 11 10 9 8 6 6 6 6 6 6 6 5 5 4 3 3 2 1 1 2
27 26 24 23 22 21 21 20 20 20 20 20 19 19 18 18 17 16 16 15 14 13 12 12 11 9 8 6 6 6 6 6 7 7 7 6 5 4 3 2 1 1
26 26 25 24 22 22 21 21 21 20 20 21 20 19 19 19 18 17 17 16 15 14 13 13 12 11 10 8 7 6 7 7 8 8 8 8 7 6 5 4 3 2
26 25 26 25 23 23 22 21 21 20 20 21 21 20 20 20 19 18 18 17 16 14 14 14 13 12 11 10 8 8 7 8 9 9 9 9 9 9 8 7 6 5
26 26 27 26 24 24 23 22 21 21 21 22 22 21 20 20 20 18 18 18 16 15 14 14 14 13 13 12 11 10 9 9 9 10 10 10 10 10 10 10 10 9
27 28 28 26 25 25 25 24 23 22 23 23 22 22 21 20 19 18 18 17 16 15 15 14 14 14 14 13 13 12 12 11 10 10 10 10 11 11 11 11 11 11
28 29 30 28 27 27 27 27 26 25 25 24 23 23 21 20 19 18 17 17 16 16 15 15 15 14 14 14 14 14 13 13 12 11 11 10 10 11 11 11 12 12
25 26 27 27 26 25 25 26 26 27 28 28 26 24 23 22 20 18 17 16 16 16 16 15 14 14 15 15 15 15 14 14 14 13 12 11 11 11 11 11 11 12
23 24 25 25 24 23 24 26 27 28 30 30 27 26 25 23 21 19 18 18 17 17 16 16 15 14 15 15 16 16 15 14 14 13 13 12 12 11 11 11 11 12
24 24 24 24 24 25 26 28 28 27 26 25 24 25 25 25 24 22 21 21 20 19 18 17 16 15 15 16 17 17 16 15 14 13 13 13 13 12 12 12 12 13
26 25 25 25 25 25 26 27 28 28 27 26 25 25 26 27 26 25 25 24 22 21 20 19 18 17 16 16 17 18 18 16 15 14 14 14 14 14 14 14 13 14
29 28 26 25 26 26 26 27 28 29 30 31 29 28 27 27 27 27 27 27 26 25 23 22 21 19 18 18 19 20 20 19 17 16 15 15 15 16 16 15 15 15
28 28 26 25 27 28 27 28 29 29 31 32 30 28 27 27 27 28 28 29 29 28 26 25 24 23 21 20 21 22 22 21 19 17 16 16 16 17 17 17 17 16
28 28 26 24 26 28 28 28 30 30 31 31 30 29 28 28 29 28 27 28 29 29 29 28 27 26 25 23 23 24 25 23 21 19 18 18 17 18 19 19 19 18
31 30 27 24 26 28 28 28 29 28 29 30 30 30 30 29 28 27 27 28 28 28 30 31 31 30 29 27 26 26 26 25 23 22 20 19 19 20 20 21 21 21
34 33 31 28 29 30 29 29 29 27 27 29 30 32 31 29 28 28 28 29 29 28 29 32 33 34 33 31 28 28 28 27 26 24 22 21 21 21 22 22 23 23
40 38 36 34 33 32 32 32 31 29 28 28 29 30 31 31 31 31 30 30 30 30 30 31 33 35 36 34 32 30 30 29 28 27 25 24 24 24 24 24 24 24
45 44 43 40 38 36 35 34 33 32 30 29 29 29 30 31 32 33 33 32 32 33 32 32 33 35 37 36 34 33 32 31 31 30 29 28 27 27 26 26 26 26

ECMWFNIL_500_spd_102.txt.gz
Wind_Speed
13 13 14 14 14 13 14 14 14 14 13 12 12 11 10 10 9 8 7 7 6 5 3 2 2 1 1 0 1 2 2 2 2 2 2 3 3 3 4 5 4 4
12 13 14 14 14 14 14 14 15 14 14 13 12 11 11 10 9 8 7 6 6 4 3 2 1 1 1 1 1 1 1 2 1 1 1 2 2 3 3 4 4 5
12 13 14 14 14 14 14 14 15 15 14 14 13 12 12 11 10 9 8 7 6 5 4 2 1 2 2 3 3 2 1 1 1 1 1 2 2 2 2 3 4 5
13 14 15 15 14 14 14 14 14 14 14 14 14 13 12 12 11 10 9 7 6 5 4 3 2 2 2 3 3 2 1 1 1 1 2 2 2 2 2 3 3 4
13 14 15 15 15 15 15 15 15 14 14 14 14 13 13 12 11 10 9 8 7 6 5 4 3 2 2 2 2 2 1 1 1 1 1 1 2 3 3 4 4 4
14 14 14 15 15 15 15 15 15 15 14 13 13 13 13 12 12 11 11 10 8 7 6 5 4 4 4 3 3 2 2 2 2 2 2 2 2 3 4 5 5 5
17 15 14 15 15 15 15 14 15 15 14 14 14 14 14 13 13 12 11 11 10 9 8 6 5 5 5 5 5 4 4 3 3 3 3 3 3 4 4 5 5 5
20 18 15 15 15 15 15 14 14 15 15 15 15 15 14 14 13 13 12 11 11 10 9 7 6 6 6 7 6 6 5 5 5 5 5 5 5 5 5 5 6 6
22 19 17 15 15 15 15 15 15 14 14 15 15 14 14 14 14 13 13 12 11 10 10 8 7 7 7 7 7 7 7 6 6 6 7 6 6 6 6 6 6 7
22 20 18 17 17 17 16 16 15 14 13 13 13 13 13 13 13 13 13 13 12 11 10 8 7 7 7 7 8 7 7 7 7 8 8 8 8 8 7 7 7 7
21 21 21 21 20 19 18 18 17 15 13 12 12 12 12 12 12 13 13 13 13 11 10 8 7 7 7 7 7 7 8 8 8 8 9 9 9 10 9 9 9 8
22 21 23 24 23 22 21 20 19 18 17 15 14 13 12 11 12 12 13 13 13 11 10 9 9 8 8 7 8 8 8 9 9 9 10 10 10 11 11 11 11 10
25 22 22 23 25 25 24 23 21 20 20 19 18 16 15 13 12 12 13 14 13 13 12 11 11 11 10 10 10 10 10 10 10 10 10 10 11 11 12 12 12 12
25 24 24 24 25 26 26 25 24 23 22 21 19 19 18 17 15 14 13 14 14 15 14 14 13 13 13 13 13 12 12 12 11 11 11 12 12 12 13 13 14 14
26 27 27 26 25 26 25 24 24 24 24 22 21 21 21 21 20 18 16 16 16 16 16 15 14 14 15 14 14 14 14 14 13 13 13 13 13 14 14 15 15 16
29 30 29 27 26 26 26 24 24 26 26 25 24 24 23 22 21 20 19 19 18 17 17 16 16 16 16 16 16 15 15 15 15 15 15 15 15 15 15 16 17 17
30 30 29 28 29 29 28 26 27 28 29 28 27 25 24 22 21 21 20 20 20 19 18 18 18 18 17 17 17 17 17 17 17 17 16 16 16 17 17 17 18 18
28 29 29 30 31 31 29 28 30 31 32 31 29 27 25 23 22 22 22 21 21 21 21 21 20 20 20 19 19 19 19 19 19 19 18 18 18 18 19 19 19 19
28 28 28 28 29 30 29 30 32 34 34 32 31 29 27 25 24 23 23 23 22 22 23 23 23 22 22 22 22 21 21 21 20 20 20 19 19 20 20 21 21 22
29 29 27 26 27 29 31 32 33 34 33 31 31 30 28 26 24 24 24 24 23 23 24 24 24 24 23 23 23 22 22 21 21 21 20 21 21 21 22 22 23 23
25 28 29 30 29 29 31 33 34 33 31 29 30 30 29 28 26 24 24 25 25 25 26 25 25 25 25 25 25 24 23 22 21 21 21 21 22 23 23 24 24 24
18 20 23 27 31 32 32 31 31 31 30 29 29 29 29 30 28 25 25 27 28 27 26 25 25 25 26 27 27 27 25 24 23 23 22 22 23 23 24 24 25 25
21 18 18 20 23 28 31 31 30 29 28 28 28 29 29 29 28 26 25 27 29 28 27 26 25 26 27 28 29 29 28 27 27 26 25 24 24 24 25 25 25 25
25 23 22 21 20 20 23 27 29 28 27 27 27 28 28 27 27 26 27 28 29 30 30 30 30 30 30 29 29 30 30 30 30 29 27 26 26 26 26 26 27 27
28 27 27 26 24 20 19 20 22 22 23 23 24 25 27 27 27 27 27 28 29 31 32 33 33 33 31 30 29 30 30 31 31 30 29 28 28 28 28 28 29 29
32 31 31 30 29 27 26 25 23 21 21 21 22 23 24 26 28 27 27 27 28 29 31 31 31 32 31 31 30 29 30 30 30 29 29 29 30 30 30 31 32 32

ECMWFNIL_500_spd_105.txt.gz
Wind_Speed
17 16 15 15 15 15 15 16 16 15 15 14 14 13 13 12 11 10 10 10 9 9 8 6 6 5 5 6 6 7 7 6 6 6 6 6 6 6 6 7 7 7
16 16 16 16 15 15 15 15 15 15 14 14 13 13 13 12 11 11 10 9 8 8 7 6 5 5 5 6 7 7 7 7 6 6 6 6 7 6 6 7 7 8
15 16 16 16 16 16 15 15 15 15 14 14 14 13 13 13 12 11 10 9 8 7 7 6 5 5 5 6 6 7 7 7 7 7 7 7 7 6 6 7 7 8
15 15 16 16 16 16 16 16 16 15 15 15 14 14 14 13 12 12 11 10 9 8 7 6 6 5 5 6 6 7 7 7 7 7 7 8 7 7 7 7 7 8
17 16 16 16 16 16 17 17 17 17 16 15 14 14 14 14 13 12 12 11 10 9 8 7 6 5 5 6 6 6 7 7 7 8 8 8 8 8 8 8 8 8
18 16 16 16 17 17 17 17 17 17 17 16 15 15 15 14 14 13 13 12 11 9 8 7 6 5 5 6 6 6 6 6 7 7 7 7 8 8 9 9 9 9
18 18 17 17 17 18 18 17 17 17 17 17 16 16 16 15 15 14 13 12 11 10 8 7 6 6 5 6 6 6 6 6 6 6 6 7 7 8 8 9 10 10
20 18 17 16 16 17 17 17 17 17 17 17 17 17 17 16 16 15 14 13 12 10 9 8 8 7 6 7 7 7 7 7 7 7 6 7 7 7 8 9 10 10
22 20 18 16 15 15 16 16 16 16 16 17 17 17 17 16 16 15 14 13 13 12 11 10 9 8 8 8 9 9 8 8 8 7 8 8 7 7 8 8 9 9
25 23 21 18 17 16 16 17 16 16 17 17 17 16 16 16 15 15 15 14 14 13 13 12 11 10 10 10 11 11 10 10 9 9 9 9 9 8 8 8 8 8
26 25 23 22 21 20 19 19 18 18 18 18 18 17 17 16 16 16 15 15 15 14 14 13 12 12 12 12 12 12 12 12 12 11 11 11 11 10 10 10 9 9
27 27 26 25 24 22 20 20 20 20 20 20 20 20 19 18 18 17 16 16 16 15 14 14 13 13 13 13 14 14 14 14 14 13 13 13 13 13 12 12 11 11
26 27 28 28 26 24 22 21 20 20 20 21 20 20 20 20 20 19 19 18 17 16 15 15 15 15 15 15 15 15 16 16 15 15 15 15 15 14 14 14 14 13
27 28 28 29 28 27 26 24 22 22 21 21 21 21 20 20 20 20 20 20 19 18 17 16 16 16 16 16 16 16 16 16 16 16 16 16 16 16 16 16 16 16
30 29 29 28 29 29 29 28 27 25 24 23 23 22 22 21 21 21 20 20 20 19 19 18 17 17 17 17 18 18 17 17 17 16 16 16 16 17 17 17 18 18
32 30 30 30 29 30 31 31 30 28 27 26 25 25 24 23 22 21 21 21 21 21 20 20 20 19 19 19 19 19 19 19 18 18 18 17 17 17 17 18 19 19
33 31 30 30 31 31 30 30 30 29 29 28 28 27 27 26 24 23 23 23 23 22 22 22 22 23 22 22 21 21 21 21 21 20 19 19 18 18 18 19 19 20
33 32 31 30 32 32 31 31 30 29 29 29 29 29 29 27 26 26 26 25 24 24 23 23 24 25 24 23 23 22 22 22 22 22 21 21 20 20 20 21 21 21
30 29 30 31 32 32 31 31 31 30 30 30 30 30 30 29 28 28 27 27 27 26 25 25 25 26 25 24 24 24 24 23 22 23 23 22 22 21 22 22 22 23
26 28 31 31 31 32 32 31 31 30 30 31 30 30 30 29 29 29 29 29 28 28 28 27 27 27 26 25 24 24 24 23 23 23 24 24 24 23 23 23 24 24
21 26 31 32 30 30 31 32 31 31 31 31 31 31 30 30 30 30 30 30 29 29 29 29 29 28 27 25 24 24 24 23 23 23 24 24 25 25 25 25 26 26
17 19 25 30 31 30 29 29 30 30 31 32 32 31 29 30 31 31 31 31 31 31 31 30 30 29 28 26 25 25 25 24 24 24 24 24 25 26 26 26 26 26
17 16 17 21 25 28 28 28 28 28 29 30 31 30 29 30 31 32 33 34 34 33 32 31 30 30 29 28 27 27 27 27 26 26 26 26 26 27 27 26 27 27
20 19 18 18 19 22 25 27 28 29 29 29 28 28 29 30 32 32 33 34 35 35 33 31 31 31 31 30 29 28 29 29 28 28 28 28 28 28 28 28 28 28
25 24 25 24 23 21 21 22 22 24 26 28 29 29 29 30 32 33 33 34 35 35 35 34 32 32 32 32 30 29 28 28 28 28 28 29 29 30 30 30 31 31
29 27 27 28 28 27 25 23 21 19 19 21 25 28 30 31 32 32 33 34 34 34 35 35 34 32 31 31 31 30 30 29 29 29 29 29 29 29 30 31 32 33

ECMWFNIL_500_spd_108.txt.gz
Wind_Speed
15 15 15 15 15 16 17 18 18 18 18 18 17 16 16 15 15 14 13 13 12 12 11 10 9 8 7 7 7 6 6 6 6 6 6 6 7 7 6 6 6 6
17 16 16 16 16 16 17 17 17 17 17 17 17 16 16 15 15 14 13 12 12 11 10 9 8 8 7 7 7 7 7 7 7 7 7 7 7 7 7 7 6 6
18 18 17 17 17 17 17 17 17 17 16 16 16 15 15 14 14 13 13 12 12 11 10 9 8 7 7 7 6 7 7 7 7 7 7 7 8 8 7 7 7 7
19 19 19 18 17 17 16 16 16 16 16 16 15 14 14 14 13 13 12 12 11 11 10 9 8 7 6 6 6 6 7 7 7 7 7 7 7 8 7 7 7 7
20 20 19 19 18 17 17 17 17 16 16 15 14 14 14 14 13 12 12 11 11 10 10 9 8 7 6 6 6 7 7 7 7 8 8 8 8 8 8 7 7 7
21 19 19 19 18 18 17 17 17 17 17 16 15 14 14 13 13 12 11 11 10 10 10 9 8 7 7 7 7 8 8 8 8 8 8 8 8 9 9 9 8 8
21 20 19 19 19 19 19 18 18 18 18 17 16 15 14 14 13 12 11 11 11 11 10 9 9 8 8 8 8 8 8 8 8 8 8 8 9 9 10 10 9 9
22 21 20 19 19 20 20 19 19 19 19 18 17 16 15 15 14 13 13 12 12 12 11 11 10 10 9 9 9 9 9 9 9 9 9 9 9 9 9 9 9 10
24 23 22 21 20 20 21 21 21 20 19 19 19 18 17 16 16 15 15 14 14 13 13 12 12 11 11 10 10 10 10 9 9 9 9 9 9 9 9 9 9 10
26 25 24 23 22 22 23 23 22 21 20 20 20 20 19 18 17 17 17 16 16 15 15 14 13 12 12 12 12 12 12 11 11 10 10 10 10 9 9 9 9 9
28 27 26 26 25 25 26 25 25 24 22 22 21 21 21 20 19 19 19 18 18 17 16 15 14 14 14 13 13 13 13 13 12 11 11 11 11 10 9 9 9 8
29 29 29 28 28 28 27 27 27 26 25 24 23 22 22 21 21 20 20 20 19 18 17 16 16 15 15 15 15 15 15 15 14 13 12 12 12 11 11 10 10 9
31 31 31 31 31 30 29 28 27 27 27 26 25 24 23 23 22 22 22 21 20 19 19 18 17 16 16 15 15 15 15 15 15 15 14 13 13 13 13 12 12 12
32 33 34 34 34 32 31 29 27 27 27 27 26 25 24 24 24 23 23 22 21 21 20 19 18 18 18 17 16 16 16 16 16 16 15 15 14 14 14 14 14 14
32 33 34 35 35 34 33 31 29 27 27 27 26 25 25 25 24 24 23 22 22 22 21 21 20 20 20 19 18 18 17 16 16 16 16 16 16 16 16 16 16 16
34 34 33 33 34 34 34 33 31 30 29 28 27 26 26 25 25 24 24 24 23 23 22 21 21 22 22 22 21 20 19 18 17 17 17 17 17 17 17 18 18 18
38 36 33 33 34 34 34 34 34 33 32 30 29 28 27 27 26 26 26 26 25 24 23 22 22 23 23 23 23 22 21 20 20 19 18 18 19 19 19 19 19 19
40 38 35 36 37 36 35 36 37 37 36 34 32 30 29 29 28 28 28 27 27 26 25 24 24 24 24 24 24 24 23 23 22 21 21 21 21 21 21 21 21 21
36 38 37 38 40 39 37 37 38 38 37 36 35 33 32 30 30 29 29 28 28 27 26 26 25 25 25 25 25 25 25 24 24 24 23 23 23 23 23 23 23 23
30 32 33 36 39 40 39 39 39 38 37 36 37 36 34 32 31 31 30 29 29 28 28 27 27 27 27 27 26 26 26 25 25 25 24 25 25 25 25 24 24 24
19 21 24 29 34 38 39 39 39 38 37 36 37 36 34 33 32 31 31 30 30 29 29 29 29 29 29 28 28 27 26 26 25 25 25 25 25 25 25 25 25 25
15 14 15 20 26 32 36 37 37 38 38 37 36 35 33 32 32 31 30 30 30 30 30 31 31 31 30 30 29 28 27 26 26 25 25 25 25 25 25 25 25 25
17 15 13 14 17 22 28 33 35 35 34 34 33 33 32 32 32 32 31 30 30 30 31 31 32 32 32 31 30 29 28 27 26 25 26 26 26 26 25 25 25 25
18 17 16 15 15 15 18 24 30 32 31 31 31 32 32 33 33 33 32 31 31 31 31 32 33 33 33 33 32 30 29 28 27 26 26 27 28 28 27 27 26 27
21 19 19 19 18 17 15 16 20 25 27 27 29 30 31 32 32 31 31 31 31 31 32 33 34 34 35 34 33 32 31 29 28 28 28 28 29 29 29 28 28 28
24 22 22 22 21 21 20 18 17 18 19 19 21 23 27 29 30 30 30 30 31 31 32 33 34 35 35 36 36 35 34 32 30 29 30 30 30 30 30 29 29 28

ECMWFNIL_500_spd_111.txt.gz
Wind_Speed
14 13 13 14 15 16 16 16 16 15 14 14 13 13 13 12 11 11 11 11 10 10 10 10 10 10 11 10 10 10 10 10 9 9 8 8 7 6 6 5 4 5
16 16 15 15 15 16 16 16 16 15 14 14 13 13 12 11 11 11 11 10 10 11 10 11 11 11 11 11 11 11 11 10 10 9 9 8 8 7 6 6 5 5
18 18 17 17 16 16 16 16 16 15 14 14 14 13 12 12 12 12 11 11 11 11 11 11 11 11 11 11 11 11 11 10 10 10 9 9 8 7 6 6 6 6
20 20 19 18 17 16 16 16 16 16 15 15 15 14 13 13 13 13 13 12 12 12 11 11 11 10 10 10 10 10 10 10 10 10 9 9 8 7 6 6 6 6
21 20 20 19 18 17 17 17 17 17 17 16 16 15 15 15 15 14 14 13 13 12 12 11 10 10 9 9 9 8 8 9 9 9 9 8 7 6 6 6 6 6
22 21 20 20 19 19 18 18 18 18 18 17 17 16 16 16 16 15 14 14 13 13 12 11 10 9 9 8 7 7 7 8 8 8 8 8 7 7 6 6 6 6
24 23 22 22 21 21 20 19 19 19 19 18 18 17 17 16 16 15 15 14 13 13 12 11 10 10 9 8 7 6 7 7 7 7 7 7 7 7 7 7 7 7
26 25 24 23 23 22 22 21 21 20 20 19 19 18 18 17 16 16 15 14 14 13 12 11 11 10 10 8 7 7 6 7 7 7 7 7 7 7 7 7 7 7
27 26 25 24 24 24 24 23 23 22 22 21 21 20 20 19 18 17 16 16 15 14 13 12 11 11 10 9 9 8 7 7 7 8 8 7 8 8 7 7 7 7
28 27 27 26 26 26 26 25 25 24 24 24 23 23 22 21 20 19 18 18 17 16 15 14 12 12 11 10 10 10 9 8 8 8 8 8 8 8 8 7 7 8
29 29 29 28 28 28 28 27 27 26 26 26 25 25 24 24 23 22 21 20 20 19 17 15 14 13 12 11 11 11 11 10 10 10 9 9 9 9 8 8 8 8
31 31 31 31 31 30 29 29 28 28 28 27 27 26 26 25 24 24 23 23 22 20 19 18 16 15 15 14 13 13 12 12 11 11 10 10 10 9 9 9 9 8
31 33 33 32 32 31 31 30 29 29 29 29 29 28 27 26 26 26 25 25 24 22 21 20 18 18 17 16 15 15 14 14 13 12 11 11 11 10 11 11 10 10
28 31 33 33 33 33 32 31 30 30 30 30 30 29 28 28 28 27 27 26 25 24 23 22 21 20 20 19 18 17 16 15 14 13 12 12 12 12 12 12 12 12
26 28 31 33 35 35 34 33 33 31 31 30 29 29 29 28 28 28 27 27 27 26 25 24 23 22 22 21 20 19 18 17 16 15 14 14 13 13 14 14 14 15
28 28 30 32 35 36 36 36 35 33 32 31 30 30 29 29 29 29 28 28 28 28 27 25 24 24 24 23 23 22 21 19 18 17 17 16 16 16 16 17 17 17
34 33 33 33 34 36 37 37 36 35 34 33 32 31 31 31 30 30 29 30 30 29 28 26 26 26 25 25 24 23 22 21 20 20 19 18 18 18 18 19 19 19
37 37 37 36 36 36 37 38 38 37 37 36 35 34 33 33 32 32 31 31 31 30 29 28 27 27 27 26 25 24 23 22 22 21 20 20 20 20 21 21 21 21
37 38 39 39 38 38 38 39 40 40 39 39 38 37 35 33 33 33 33 32 32 32 31 30 29 29 28 27 26 25 24 23 22 21 21 21 21 22 22 23 22 22
34 35 36 36 36 38 39 40 41 41 41 41 41 40 38 36 35 34 34 34 34 33 33 32 31 30 29 28 27 26 25 24 23 22 22 22 23 23 23 23 23 23
30 29 29 30 31 33 36 40 43 44 42 42 42 42 41 40 39 38 36 36 35 34 33 33 32 32 31 29 28 27 26 25 24 24 24 23 23 23 23 23 23 23
29 27 25 26 27 28 30 34 40 45 46 43 42 42 42 42 42 41 40 39 37 35 34 34 35 34 32 31 30 29 28 27 26 26 25 25 25 24 24 24 23 23
27 24 20 18 19 19 20 23 28 37 44 46 45 43 42 42 42 43 43 42 40 38 37 37 37 35 33 32 31 30 29 28 27 27 27 27 26 25 25 25 24 23
23 22 18 14 13 13 14 15 17 21 30 40 45 45 43 42 41 42 43 42 41 40 40 40 39 36 33 32 31 32 32 31 29 29 29 28 27 26 26 25 25 24
23 22 19 16 15 14 13 14 14 13 15 22 32 40 42 39 39 40 40 39 40 41 39 38 38 35 33 33 32 33 34 33 32 31 30 29 29 28 27 27 26 26
27 26 24 22 21 20 19 18 16 14 13 15 20 28 34 35 36 39 38 37 38 38 38 38 37 35 35 35 35 35 35 33 33 33 32 31 31 30 29 28 28 28

ECMWFNIL_500_spd_114.txt.gz
Wind_Speed
17 17 17 17 17 17 16 16 15 14 13 12 12 12 12 11 10 9 9 8 7 6 6 6 6 6 6 6 6 7 7 7 8 8 8 7 7 6 5 5 5 6
18 17 18 18 18 18 17 16 16 15 14 14 14 14 13 12 11 10 10 9 8 8 7 7 7 7 7 7 7 8 8 8 8 8 8 8 7 7 6 6 6 6
18 19 18 19 18 18 17 17 17 16 16 16 15 15 14 13 12 12 11 10 9 9 8 7 7 7 7 7 8 9 9 9 9 9 9 8 7 7 7 7 7 6
19 19 19 19 19 18 18 17 17 17 17 17 16 15 15 14 13 12 12 11 10 9 9 8 8 7 7 8 8 9 9 9 9 9 9 8 7 7 7 7 7 7
19 19 19 19 19 19 18 18 18 18 18 18 17 16 16 15 14 13 13 12 11 10 10 9 8 8 8 8 8 8 8 8 7 7 7 7 7 6 6 7 7 7
21 20 20 20 19 19 19 19 19 19 18 18 18 17 16 16 15 14 13 13 12 12 11 10 9 9 9 8 8 8 7 7 6 6 6 6 6 6 6 6 7 7
23 22 22 21 21 21 21 20 20 20 19 19 19 18 17 16 16 15 14 14 13 13 12 11 10 10 9 9 8 7 7 7 6 6 5 5 5 5 6 6 6 7
24 24 23 23 23 23 22 21 21 21 21 20 20 19 18 17 16 16 15 15 15 14 13 12 11 11 10 9 8 7 7 7 7 6 5 5 5 5 5 5 5 6
25 25 25 25 24 24 24 23 23 22 22 22 21 21 20 19 18 17 17 16 16 16 15 14 13 12 11 10 9 8 7 7 7 7 7 6 6 6 6 5 5 5
26 26 26 26 26 26 25 25 24 24 24 23 23 23 22 21 20 19 19 18 18 17 17 16 15 14 13 12 11 10 9 8 8 8 8 7 7 7 6 6 6 6
28 27 27 27 27 27 27 27 26 26 26 25 25 25 24 23 22 22 21 21 20 19 19 18 17 16 15 14 13 12 11 10 9 8 8 8 8 8 8 7 7 7
29 29 28 28 28 29 29 28 28 27 27 27 26 26 25 25 24 23 23 23 23 22 21 20 19 18 17 16 15 14 14 13 12 10 10 10 9 9 9 9 9 8
27 29 30 30 30 30 30 30 29 29 28 28 27 27 26 26 26 25 25 25 25 24 23 22 21 20 20 19 18 17 16 15 14 13 11 11 11 11 11 11 11 11
25 26 29 31 32 32 32 31 31 30 29 29 28 28 28 28 28 28 27 27 27 26 25 25 24 23 22 22 21 20 19 18 17 15 13 12 12 12 13 13 13 13
27 25 26 29 31 33 33 33 33 33 31 31 29 29 29 29 29 29 29 29 28 28 28 27 26 25 25 24 23 22 21 20 19 18 16 14 14 14 15 15 15 15
29 27 26 27 29 31 33 34 35 35 34 33 32 31 30 30 30 31 31 30 30 30 30 29 29 28 27 27 26 24 23 22 21 20 18 17 16 16 16 16 16 16
32 32 31 30 29 30 31 34 36 37 37 36 34 33 32 31 31 32 32 32 32 32 32 31 31 30 29 29 28 26 26 24 23 22 21 20 19 18 18 18 17 17
33 34 35 35 34 33 32 33 35 37 38 38 37 36 35 34 33 33 33 33 33 33 33 33 33 33 32 31 29 27 27 26 25 24 23 22 22 21 20 19 19 18
32 34 35 37 39 38 36 35 35 36 38 40 40 39 38 36 35 35 35 35 34 34 34 35 35 35 34 32 30 28 28 27 27 26 25 24 24 23 22 22 20 19
31 33 34 36 38 39 39 38 38 38 39 41 41 41 40 39 39 38 37 36 36 35 35 37 38 36 34 34 32 30 29 28 28 27 27 26 26 25 25 24 22 21
31 32 33 33 34 36 37 38 40 41 42 42 41 41 42 42 42 42 40 39 39 37 37 38 39 36 35 35 34 32 31 30 29 29 28 28 27 27 27 26 24 23
31 31 32 33 33 34 35 35 35 38 41 42 42 42 42 43 44 44 44 43 42 41 40 40 38 37 36 36 35 34 32 31 31 30 29 29 29 28 28 27 26 24
30 30 31 32 32 33 33 32 32 32 34 36 38 40 41 43 45 46 46 46 46 44 42 41 38 37 37 38 37 36 34 33 33 32 31 31 31 30 29 29 28 26
28 28 29 31 33 32 32 32 32 31 31 32 34 36 38 42 46 47 46 46 45 44 43 42 41 40 40 40 39 38 37 36 35 33 33 33 33 32 31 30 30 29
29 26 25 28 30 30 29 29 28 27 26 25 26 28 31 36 41 46 48 47 43 43 44 43 43 45 44 43 41 40 39 37 36 35 35 35 34 33 32 32 32 31
32 29 27 26 26 27 27 26 23 21 20 20 21 22 23 25 30 39 47 48 44 43 44 43 43 46 47 46 45 43 41 40 39 38 37 36 35 34 34 34 33 32

ECMWFNIL_500_spd_117.txt.gz
Wind_Speed
15 14 14 14 13 13 12 11 11 11 10 10 10 9 9 9 8 7 7 6 6 5 5 4 4 3 3 3 3 4 4 4 5 5 4 4 4 5 5 5 5 5
16 16 16 15 14 14 13 12 12 11 11 11 10 10 9 9 9 8 8 7 7 6 6 5 5 4 4 4 4 4 4 5 6 5 5 5 5 5 5 6 6 6
16 17 16 16 15 15 14 13 13 12 12 11 11 10 10 10 9 9 9 9 8 8 7 7 6 5 5 5 5 4 4 5 6 5 5 6 5 5 5 6 6 6
16 17 17 17 16 16 15 15 14 14 13 13 12 12 11 11 10 10 10 10 9 9 8 7 7 6 6 6 5 5 5 6 6 5 6 6 6 6 6 6 6 6
16 16 17 17 17 17 17 16 15 15 15 14 14 13 13 12 12 12 11 11 11 10 9 8 7 7 7 7 6 5 5 6 6 5 5 5 5 6 6 6 6 6
17 17 17 18 18 18 18 17 17 16 16 16 15 15 14 14 14 13 12 12 11 11 10 9 9 8 8 7 7 6 5 5 5 5 5 5 5 5 6 6 6 5
19 18 18 18 19 19 19 18 18 18 17 17 17 16 16 15 15 15 14 13 12 12 11 10 10 10 9 9 8 7 7 6 6 6 6 6 5 6 6 6 6 6
21 20 20 19 19 20 20 20 19 19 18 18 19 18 17 17 16 16 15 14 13 12 12 11 11 10 10 10 9 9 8 7 7 7 7 7 6 6 6 6 6 6
21 21 21 21 21 21 21 21 21 20 20 20 20 20 19 18 17 17 16 16 15 13 13 12 11 11 11 11 10 10 10 9 8 8 8 8 8 7 7 7 7 6
22 22 22 22 23 23 23 23 22 22 21 22 22 21 21 20 19 18 18 17 16 15 14 13 13 12 12 12 12 12 11 11 10 10 10 10 9 9 9 8 8 8
22 22 23 23 23 24 25 24 24 23 22 23 24 24 23 22 21 20 20 19 18 17 16 15 14 14 13 13 13 13 13 13 12 12 11 11 10 10 10 9 9 9
20 22 23 24 25 25 25 26 26 25 24 24 25 25 24 24 23 22 21 21 20 19 18 17 16 16 15 15 15 14 15 14 14 13 13 12 12 12 11 11 11 11
20 20 22 24 25 26 26 27 27 26 26 25 25 25 25 25 25 25 24 23 22 21 20 19 19 18 18 17 17 16 16 16 16 16 15 14 13 13 13 13 13 13
22 22 21 22 23 25 27 28 28 28 28 27 26 25 26 26 27 26 26 25 24 23 23 22 22 21 21 20 19 19 19 18 18 18 17 16 15 15 15 15 15 14
24 24 23 22 23 24 26 28 30 30 29 29 28 27 27 28 28 28 28 27 26 25 25 25 24 25 24 23 23 21 21 21 20 19 18 18 17 16 16 17 16 16
28 27 26 26 26 25 26 27 29 31 32 32 31 30 30 30 29 29 29 29 28 28 28 27 27 28 27 26 25 24 23 23 21 20 19 20 19 19 18 18 18 18
30 29 29 29 29 28 27 27 28 30 32 33 33 33 32 32 32 32 32 32 31 30 30 30 30 31 30 28 27 26 25 25 24 23 22 22 22 21 20 20 19 19
29 30 29 29 30 30 29 29 29 29 30 32 34 35 35 35 34 34 34 33 33 33 32 32 33 34 33 30 29 28 26 26 26 25 25 25 24 23 23 22 21 20
28 29 29 28 29 30 31 31 32 32 32 32 32 33 35 36 37 36 36 35 34 34 34 34 35 37 35 32 31 30 28 27 27 27 27 27 26 25 25 24 23 22
28 28 29 28 28 29 30 30 32 34 35 34 34 33 33 35 36 37 38 38 37 36 36 37 39 38 35 33 33 32 30 29 28 28 28 28 28 27 27 26 25 24
26 27 28 29 29 29 29 29 30 32 34 35 36 36 36 36 36 37 39 40 40 39 39 41 41 38 36 35 34 34 33 31 31 30 29 29 29 28 28 28 27 27
27 27 27 27 28 29 29 28 29 30 32 33 34 36 37 37 37 36 38 39 41 41 42 42 41 39 39 38 37 36 35 33 32 32 30 30 30 30 30 30 29 28
28 28 27 28 28 28 28 29 29 30 32 32 32 33 34 36 36 37 38 38 40 41 42 43 43 42 42 42 41 38 37 36 34 33 32 31 31 32 32 31 30 30
29 28 29 30 30 28 28 28 29 30 31 31 32 33 34 35 35 37 38 39 39 41 44 46 45 42 42 45 45 41 38 38 37 34 32 32 31 32 32 31 31 31
30 30 30 30 30 29 28 27 27 28 29 30 31 33 34 34 35 37 38 38 38 41 44 45 44 43 44 46 47 44 42 41 39 35 34 34 33 33 33 32 32 32
33 33 32 32 31 31 30 28 27 27 28 30 32 33 33 33 34 35 35 34 35 36 38 40 42 46 49 49 49 47 45 45 43 38 36 36 36 35 34 34 33 33

ECMWFNIL_500_spd_123.txt.gz
Wind_Speed
8 8 8 7 6 5 5 4 4 4 4 3 3 2 3 3 3 3 3 3 2 2 2 2 2 1 1 0 1 1 2 2 2 2 2 2 2 2 2 3 2 2
9 9 9 8 7 6 6 5 5 5 4 4 3 3 3 4 3 3 3 3 2 2 1 1 2 2 1 1 2 2 2 3 3 3 2 2 2 2 2 2 1 2
9 9 9 8 8 8 7 6 5 5 5 4 4 4 4 4 4 4 4 3 3 2 2 2 3 3 3 3 3 3 3 3 3 3 2 2 2 3 3 3 1 1
10 9 9 9 9 9 8 7 6 6 5 5 5 5 5 4 5 5 5 4 4 3 3 3 4 4 4 4 4 4 4 4 4 4 3 3 3 3 4 3 3 1
10 10 9 9 9 9 8 8 8 7 7 7 7 6 6 6 6 6 5 5 5 4 4 5 5 5 5 5 4 4 4 4 4 4 3 3 4 4 4 4 4 3
11 10 9 9 9 9 9 9 9 9 8 8 8 7 7 7 7 6 6 6 5 5 5 6 6 6 6 6 6 5 5 5 4 4 4 4 4 4 4 4 4 4
12 11 10 10 9 9 10 9 10 10 9 9 9 8 8 8 8 8 7 7 6 6 7 7 7 8 8 7 7 7 7 7 5 4 4 4 4 4 4 4 5 5
13 12 11 11 10 10 10 10 10 10 10 10 10 9 9 10 9 9 9 8 8 8 8 8 8 9 9 9 8 8 8 8 7 6 6 5 5 5 5 5 5 5
14 14 13 13 12 12 12 11 11 11 11 11 11 11 11 11 10 10 10 9 9 10 10 10 10 10 10 10 10 10 9 9 9 9 8 7 7 7 7 7 6 6
15 15 15 15 15 15 14 13 13 12 12 12 12 12 12 12 12 12 11 11 11 11 11 11 11 11 11 11 11 11 11 10 10 10 10 10 9 9 9 9 8 8
16 16 16 16 16 16 16 15 14 14 14 14 14 14 14 14 14 14 13 13 13 12 13 13 13 12 12 12 12 12 12 12 12 12 12 12 11 11 11 11 10 10
16 16 16 17 17 17 16 16 16 15 15 15 15 15 15 15 16 15 16 15 14 14 14 14 15 15 14 14 13 13 13 13 13 13 12 12 12 13 13 13 13 13
16 15 15 15 14 15 15 16 16 16 16 16 16 16 16 16 17 17 17 17 16 16 16 16 17 17 16 15 15 15 15 14 14 14 14 13 13 14 14 14 15 15
16 15 14 13 13 13 13 14 15 16 16 17 17 17 17 17 18 18 18 18 18 18 18 18 18 17 17 17 16 16 16 16 16 16 16 16 15 15 15 16 16 17
16 15 15 15 14 14 15 15 15 15 15 15 16 16 16 17 18 18 18 18 18 19 20 19 18 18 18 18 18 18 18 18 18 18 18 18 18 18 17 17 18 18
16 17 18 17 17 16 16 16 16 15 15 15 15 16 16 17 18 18 18 18 19 21 21 20 19 19 19 19 19 19 19 19 19 20 21 21 20 20 20 20 20 19
18 21 21 20 20 19 18 18 18 18 17 17 17 17 17 17 18 18 18 19 20 21 21 20 20 20 20 21 21 21 20 20 21 22 23 23 22 22 22 21 21 21
19 21 19 19 20 21 21 21 21 21 21 20 20 20 19 19 19 19 19 21 22 23 24 24 23 23 22 22 22 23 22 22 23 23 23 24 24 24 24 23 22 22
18 18 16 15 16 18 19 21 22 23 23 23 23 22 22 22 23 24 23 23 24 25 26 27 26 26 25 24 24 25 25 25 26 26 25 25 25 25 25 25 24 24
15 16 15 15 16 17 18 20 21 23 23 22 23 23 23 24 26 27 26 25 25 26 26 26 26 27 27 25 25 26 27 28 29 29 30 29 28 27 26 25 25 26
14 15 17 18 19 19 20 20 22 23 23 21 22 22 23 24 25 27 28 28 27 28 27 26 27 27 27 27 26 26 28 30 32 33 34 34 32 29 29 28 28 27
16 18 20 21 21 21 21 23 23 23 22 22 21 22 23 24 25 26 27 27 27 27 27 28 28 29 30 30 29 28 28 30 32 34 36 36 34 32 31 31 31 30
20 21 21 21 21 21 22 23 23 21 21 22 22 22 23 23 24 25 25 26 27 27 26 27 28 30 31 31 32 31 31 32 34 35 35 36 36 34 32 32 33 33
23 23 22 21 22 23 23 23 23 22 21 22 22 23 24 24 24 24 24 26 28 27 26 27 27 28 29 30 31 30 30 31 33 34 34 34 34 34 33 33 34 35
28 28 28 26 25 26 26 25 25 24 24 23 23 24 25 26 26 26 27 28 28 27 27 28 28 28 29 31 31 29 28 29 30 32 33 34 35 35 35 34 35 35
33 34 33 31 30 30 29 29 28 28 28 27 26 27 28 29 30 30 30 29 29 28 28 29 30 30 31 32 32 31 30 30 32 34 35 35 35 35 35 35 36 36